Time,TemperatureF,DewpointF,PressureIn,WindDirection,WindDirectionDegrees,WindSpeedMPH,WindSpeedGustMPH,Humidity,HourlyPrecipIn,Conditions,Clouds,dailyrainin,SoftwareType,DateUTC
2013-01-17 00:00:00,32.1,25.4,30.07,WSW,251,5.2,8.0,76,0.00,,FEW033,0.00,VWS V14.01,2013-01-17 05:00:00,
2013-01-17 00:01:00,32.1,25.4,30.07,WSW,250,5.2,8.0,76,0.00,,FEW033,0.00,VWS V14.01,2013-01-17 05:01:00,
2013-01-17 00:03:00,32.1,25.1,30.08,WSW,250,9.2,9.2,75,0.00,,FEW033,0.00,VWS V14.01,2013-01-17 05:03:00,
2013-01-17 00:08:00,32.1,25.1,30.07,WSW,249,8.2,9.0,75,0.00,,FEW033,0.00,VWS V14.01,2013-01-17 05:08:00,
2013-01-17 00:13:00,32.1,25.1,30.08,WSW,249,6.2,10.0,75,0.00,,FEW033,0.00,VWS V14.01,2013-01-17 05:13:00,
2013-01-17 00:18:00,32.0,25.0,30.08,WSW,250,9.2,10.0,75,0.00,,FEW033,0.00,VWS V14.01,2013-01-17 05:18:00,
2013-01-17 00:23:00,31.9,25.2,30.08,WSW,250,7.2,9.0,76,0.00,,FEW033,0.00,VWS V14.01,2013-01-17 05:23:00,
2013-01-17 00:28:00,31.7,25.0,30.08,WSW,250,5.2,9.0,76,0.00,,FEW033,0.00,VWS V14.01,2013-01-17 05:28:00,
2013-01-17 00:33:00,31.4,24.7,30.08,WSW,250,5.2,8.0,76,0.00,,FEW033,0.00,VWS V14.01,2013-01-17 05:33:00,
2013-01-17 00:38:00,31.2,24.5,30.09,WSW,250,6.2,8.0,76,0.00,,FEW033,0.00,VWS V14.01,2013-01-17 05:38:00,
2013-01-17 00:43:00,30.9,24.5,30.09,WSW,250,3.2,6.0,77,0.00,,FEW033,0.00,VWS V14.01,2013-01-17 05:43:00,
2013-01-17 00:48:00,30.7,24.4,30.09,WSW,250,5.2,6.0,77,0.00,,FEW033,0.00,VWS V14.01,2013-01-17 05:48:00,
2013-01-17 00:53:00,30.6,24.3,30.09,WSW,250,3.2,4.0,77,0.00,,FEW033,0.00,VWS V14.01,2013-01-17 05:53:00,
2013-01-17 00:58:00,30.4,24.1,30.09,WSW,249,7.2,8.0,77,0.00,,FEW033,0.00,VWS V14.01,2013-01-17 05:58:00,
2013-01-17 01:03:00,30.4,24.1,30.09,WSW,249,4.2,6.0,77,0.00,,CLR,0.00,VWS V14.01,2013-01-17 06:03:00,
2013-01-17 01:08:00,30.4,24.1,30.09,WSW,248,4.2,6.0,77,0.00,,CLR,0.00,VWS V14.01,2013-01-17 06:08:00,
2013-01-17 01:13:00,30.3,24.0,30.09,WSW,248,3.2,6.0,77,0.00,,CLR,0.00,VWS V14.01,2013-01-17 06:13:00,
2013-01-17 01:18:00,30.2,23.9,30.10,WSW,248,7.2,7.2,77,0.00,,CLR,0.00,VWS V14.01,2013-01-17 06:18:00,
2013-01-17 01:23:00,30.2,23.9,30.10,WSW,248,3.2,4.0,77,0.00,,CLR,0.00,VWS V14.01,2013-01-17 06:23:00,
2013-01-17 01:28:00,30.2,23.9,30.11,WSW,248,1.2,5.0,77,0.00,,CLR,0.00,VWS V14.01,2013-01-17 06:28:00,
2013-01-17 01:33:00,30.2,23.9,30.11,WSW,248,2.2,6.0,77,0.00,,CLR,0.00,VWS V14.01,2013-01-17 06:33:00,
2013-01-17 01:38:00,30.2,23.9,30.11,WSW,248,3.2,6.0,77,0.00,,CLR,0.00,VWS V14.01,2013-01-17 06:38:00,
2013-01-17 01:43:00,30.3,24.3,30.12,WSW,248,2.2,4.0,78,0.00,,CLR,0.00,VWS V14.01,2013-01-17 06:43:00,
2013-01-17 01:48:00,30.4,24.4,30.11,WSW,248,4.2,5.0,78,0.00,,CLR,0.00,VWS V14.01,2013-01-17 06:48:00,
2013-01-17 01:53:00,30.5,24.5,30.11,WSW,248,3.2,3.2,78,0.00,,CLR,0.00,VWS V14.01,2013-01-17 06:53:00,
2013-01-17 01:58:00,30.5,24.5,30.12,WSW,248,1.2,4.0,78,0.00,,CLR,0.00,VWS V14.01,2013-01-17 06:58:00,
2013-01-17 02:03:00,30.6,24.6,30.12,WSW,248,6.2,6.2,78,0.00,,OVC033,0.00,VWS V14.01,2013-01-17 07:03:00,
2013-01-17 02:08:00,30.7,24.7,30.11,WSW,248,4.2,5.0,78,0.00,,OVC033,0.00,VWS V14.01,2013-01-17 07:08:00,
2013-01-17 02:13:00,30.7,24.7,30.11,WSW,248,3.2,4.0,78,0.00,,OVC033,0.00,VWS V14.01,2013-01-17 07:13:00,
2013-01-17 02:18:00,30.8,24.8,30.11,WSW,248,3.2,4.0,78,0.00,,OVC033,0.00,VWS V14.01,2013-01-17 07:18:00,
2013-01-17 02:23:00,30.8,25.1,30.12,WSW,248,2.2,3.0,79,0.00,,OVC033,0.00,VWS V14.01,2013-01-17 07:23:00,
2013-01-17 02:28:00,30.8,25.1,30.12,WSW,248,1.2,3.0,79,0.00,,OVC033,0.00,VWS V14.01,2013-01-17 07:28:00,
2013-01-17 02:33:00,30.8,25.1,30.12,WSW,248,3.2,3.2,79,0.00,,OVC033,0.00,VWS V14.01,2013-01-17 07:33:00,
2013-01-17 02:38:00,30.9,25.2,30.13,WSW,248,3.2,4.0,79,0.00,,OVC033,0.00,VWS V14.01,2013-01-17 07:38:00,
2013-01-17 02:43:00,30.9,25.2,30.13,WSW,248,2.2,3.0,79,0.00,,OVC033,0.00,VWS V14.01,2013-01-17 07:43:00,
2013-01-17 02:48:00,30.9,25.2,30.13,WSW,248,5.2,5.2,79,0.00,,OVC033,0.00,VWS V14.01,2013-01-17 07:48:00,
2013-01-17 02:53:00,31.0,25.3,30.14,WSW,248,4.2,5.0,79,0.00,,OVC033,0.00,VWS V14.01,2013-01-17 07:53:00,
2013-01-17 02:58:00,31.1,25.4,30.14,WSW,248,3.2,5.0,79,0.00,,OVC033,0.00,VWS V14.01,2013-01-17 07:58:00,
2013-01-17 03:03:00,31.2,25.5,30.14,WSW,248,4.2,4.2,79,0.00,,OVC026,0.00,VWS V14.01,2013-01-17 08:03:00,
2013-01-17 03:08:00,31.2,25.5,30.14,WSW,248,3.2,4.0,79,0.00,,OVC026,0.00,VWS V14.01,2013-01-17 08:08:00,
2013-01-17 03:13:00,31.2,25.5,30.14,WSW,248,4.2,4.2,79,0.00,,OVC026,0.00,VWS V14.01,2013-01-17 08:13:00,
2013-01-17 03:19:00,31.3,25.6,30.14,WSW,248,3.2,4.0,79,0.00,,OVC026,0.00,VWS V14.01,2013-01-17 08:19:00,
2013-01-17 03:24:00,31.3,25.6,30.14,WSW,248,4.2,4.2,79,0.00,,OVC026,0.00,VWS V14.01,2013-01-17 08:24:00,
2013-01-17 03:29:00,31.2,25.5,30.14,WSW,248,3.2,4.0,79,0.00,,OVC026,0.00,VWS V14.01,2013-01-17 08:29:00,
2013-01-17 03:34:00,31.2,25.1,30.14,WSW,248,5.2,5.2,78,0.00,,OVC026,0.00,VWS V14.01,2013-01-17 08:34:00,
2013-01-17 03:39:00,31.1,25.0,30.13,WSW,248,4.2,5.0,78,0.00,,OVC026,0.00,VWS V14.01,2013-01-17 08:39:00,
2013-01-17 03:44:00,31.0,25.0,30.13,WSW,248,3.2,4.0,78,0.00,,OVC026,0.00,VWS V14.01,2013-01-17 08:44:00,
2013-01-17 03:49:00,30.9,24.9,30.13,WSW,249,4.2,6.0,78,0.00,,OVC026,0.00,VWS V14.01,2013-01-17 08:49:00,
2013-01-17 03:54:00,30.9,24.9,30.13,WSW,249,3.2,5.0,78,0.00,,OVC026,0.00,VWS V14.01,2013-01-17 08:54:00,
2013-01-17 03:59:00,30.9,24.9,30.13,WSW,249,3.2,7.0,78,0.00,,OVC026,0.00,VWS V14.01,2013-01-17 08:59:00,
2013-01-17 04:04:00,31.0,25.0,30.13,WSW,249,5.2,6.0,78,0.00,,OVC030,0.00,VWS V14.01,2013-01-17 09:04:00,
2013-01-17 04:09:00,31.0,25.0,30.13,WSW,254,2.2,9.0,78,0.00,,OVC030,0.00,VWS V14.01,2013-01-17 09:09:00,
2013-01-17 04:14:00,31.1,25.0,30.13,WSW,254,5.2,6.0,78,0.00,,OVC030,0.00,VWS V14.01,2013-01-17 09:14:00,
2013-01-17 04:19:00,31.1,24.8,30.13,WSW,253,1.2,6.0,77,0.00,,OVC030,0.00,VWS V14.01,2013-01-17 09:19:00,
2013-01-17 04:24:00,31.1,24.8,30.13,WSW,254,1.2,2.0,77,0.00,,OVC030,0.00,VWS V14.01,2013-01-17 09:24:00,
2013-01-17 04:29:00,31.1,24.8,30.13,WSW,254,1.2,2.0,77,0.00,,OVC030,0.00,VWS V14.01,2013-01-17 09:29:00,
2013-01-17 04:34:00,31.0,25.0,30.13,WSW,254,2.2,3.0,78,0.00,,OVC030,0.00,VWS V14.01,2013-01-17 09:34:00,
2013-01-17 04:39:00,30.9,24.9,30.14,WSW,253,2.2,4.0,78,0.00,,OVC030,0.00,VWS V14.01,2013-01-17 09:39:00,
2013-01-17 04:44:00,30.8,24.8,30.14,WSW,254,1.2,1.2,78,0.00,,OVC030,0.00,VWS V14.01,2013-01-17 09:44:00,
2013-01-17 04:49:00,30.7,24.7,30.14,WSW,254,1.2,1.2,78,0.00,,OVC030,0.00,VWS V14.01,2013-01-17 09:49:00,
2013-01-17 04:54:00,30.6,24.6,30.14,WSW,254,1.2,0.0,78,0.00,,OVC030,0.00,VWS V14.01,2013-01-17 09:54:00,
2013-01-17 04:59:00,30.4,24.1,30.14,WSW,254,1.2,0.0,77,0.00,,OVC030,0.00,VWS V14.01,2013-01-17 09:59:00,
2013-01-17 05:04:00,30.3,24.3,30.14,WSW,254,1.2,0.0,78,0.00,,FEW033,0.00,VWS V14.01,2013-01-17 10:04:00,
2013-01-17 05:09:00,30.1,24.1,30.14,WSW,254,1.2,0.0,78,0.00,,FEW033,0.00,VWS V14.01,2013-01-17 10:09:00,
2013-01-17 05:14:00,29.9,23.9,30.15,WSW,253,2.2,2.2,78,0.00,,FEW033,0.00,VWS V14.01,2013-01-17 10:14:00,
2013-01-17 05:19:00,29.8,24.1,30.15,WSW,253,1.2,2.0,79,0.00,,FEW033,0.00,VWS V14.01,2013-01-17 10:19:00,
2013-01-17 05:24:00,29.8,24.1,30.14,WSW,253,1.2,1.2,79,0.00,,FEW033,0.00,VWS V14.01,2013-01-17 10:24:00,
2013-01-17 05:29:00,29.7,24.0,30.15,WSW,253,1.2,1.2,79,0.00,,FEW033,0.00,VWS V14.01,2013-01-17 10:29:00,
2013-01-17 05:34:00,29.5,23.8,30.15,WSW,254,1.2,0.0,79,0.00,,FEW033,0.00,VWS V14.01,2013-01-17 10:34:00,
2013-01-17 05:39:00,29.4,23.7,30.14,WSW,254,1.2,0.0,79,0.00,,FEW033,0.00,VWS V14.01,2013-01-17 10:39:00,
2013-01-17 05:44:00,29.1,23.4,30.15,WSW,253,1.2,0.0,79,0.00,,FEW033,0.00,VWS V14.01,2013-01-17 10:44:00,
2013-01-17 05:49:00,28.9,23.5,30.15,WSW,254,1.2,0.0,80,0.00,,FEW033,0.00,VWS V14.01,2013-01-17 10:49:00,
2013-01-17 05:54:00,28.7,23.3,30.16,WSW,254,1.2,0.0,80,0.00,,FEW033,0.00,VWS V14.01,2013-01-17 10:54:00,
2013-01-17 05:59:00,28.5,23.1,30.16,WSW,254,1.2,3.0,80,0.00,,FEW033,0.00,VWS V14.01,2013-01-17 10:59:00,
2013-01-17 06:04:00,28.3,22.9,30.16,WSW,253,1.2,0.0,80,0.00,,CLR,0.00,VWS V14.01,2013-01-17 11:04:00,
2013-01-17 06:09:00,28.1,22.7,30.16,WSW,254,1.2,0.0,80,0.00,,CLR,0.00,VWS V14.01,2013-01-17 11:09:00,
2013-01-17 06:14:00,28.0,22.6,30.17,WSW,254,1.2,0.0,80,0.00,,CLR,0.00,VWS V14.01,2013-01-17 11:14:00,
2013-01-17 06:19:00,27.8,22.4,30.17,WSW,254,1.2,0.0,80,0.00,,CLR,0.00,VWS V14.01,2013-01-17 11:19:00,
2013-01-17 06:25:00,27.6,22.5,30.17,WSW,254,1.2,0.0,81,0.00,,CLR,0.00,VWS V14.01,2013-01-17 11:25:00,
2013-01-17 06:30:00,27.5,22.5,30.17,WSW,254,1.2,0.0,81,0.00,,CLR,0.00,VWS V14.01,2013-01-17 11:30:00,
2013-01-17 06:35:00,27.4,22.4,30.17,WSW,254,2.2,2.2,81,0.00,,CLR,0.00,VWS V14.01,2013-01-17 11:35:00,
2013-01-17 06:40:00,27.4,22.6,30.17,WSW,253,3.2,3.2,82,0.00,,CLR,0.00,VWS V14.01,2013-01-17 11:40:00,
2013-01-17 06:45:00,27.4,22.6,30.17,WSW,253,3.2,3.2,82,0.00,,CLR,0.00,VWS V14.01,2013-01-17 11:45:00,
2013-01-17 06:50:00,27.5,22.7,30.17,WSW,254,2.2,2.2,82,0.00,,CLR,0.00,VWS V14.01,2013-01-17 11:50:00,
2013-01-17 06:55:00,27.6,23.1,30.18,WSW,254,3.2,3.2,83,0.00,,CLR,0.00,VWS V14.01,2013-01-17 11:55:00,
2013-01-17 07:00:00,27.7,23.2,30.18,WSW,254,3.2,3.2,83,0.00,,CLR,0.00,VWS V14.01,2013-01-17 12:00:00,
2013-01-17 07:05:00,27.6,23.1,30.18,WSW,254,3.2,3.2,83,0.00,,CLR,0.00,VWS V14.01,2013-01-17 12:05:00,
2013-01-17 07:10:00,27.5,23.0,30.18,WSW,254,1.2,2.0,83,0.00,,CLR,0.00,VWS V14.01,2013-01-17 12:10:00,
2013-01-17 07:15:00,27.5,23.0,30.18,WSW,254,1.2,2.0,83,0.00,,CLR,0.00,VWS V14.01,2013-01-17 12:15:00,
2013-01-17 07:20:00,27.4,22.9,30.19,WSW,254,2.2,2.2,83,0.00,,CLR,0.00,VWS V14.01,2013-01-17 12:20:00,
2013-01-17 07:25:00,27.3,22.8,30.19,WSW,254,2.2,2.2,83,0.00,,CLR,0.00,VWS V14.01,2013-01-17 12:25:00,
2013-01-17 07:30:00,27.1,22.6,30.19,WSW,254,2.2,2.2,83,0.00,,CLR,0.00,VWS V14.01,2013-01-17 12:30:00,
2013-01-17 07:35:00,27.0,22.5,30.19,WSW,254,1.2,0.0,83,0.00,,CLR,0.00,VWS V14.01,2013-01-17 12:35:00,
2013-01-17 07:40:00,26.9,22.4,30.20,WSW,253,1.2,2.0,83,0.00,,CLR,0.00,VWS V14.01,2013-01-17 12:40:00,
2013-01-17 07:45:00,26.8,22.3,30.20,WSW,254,1.2,2.0,83,0.00,,CLR,0.00,VWS V14.01,2013-01-17 12:45:00,
2013-01-17 07:50:00,26.6,22.1,30.20,WSW,254,2.2,2.2,83,0.00,,CLR,0.00,VWS V14.01,2013-01-17 12:50:00,
2013-01-17 07:55:00,26.4,22.0,30.20,WSW,253,3.2,3.2,83,0.00,,CLR,0.00,VWS V14.01,2013-01-17 12:55:00,
2013-01-17 08:00:00,26.1,21.4,30.20,WSW,253,2.2,3.0,82,0.00,,CLR,0.00,VWS V14.01,2013-01-17 13:00:00,
2013-01-17 08:05:00,25.9,21.2,30.20,WSW,254,1.2,1.2,82,0.00,,CLR,0.00,VWS V14.01,2013-01-17 13:05:00,
2013-01-17 08:10:00,25.7,21.0,30.21,WSW,254,1.2,1.2,82,0.00,,CLR,0.00,VWS V14.01,2013-01-17 13:10:00,
2013-01-17 08:15:00,25.6,21.2,30.21,WSW,254,2.2,2.2,83,0.00,,CLR,0.00,VWS V14.01,2013-01-17 13:15:00,
2013-01-17 08:20:00,25.5,21.1,30.21,WSW,254,2.2,2.2,83,0.00,,CLR,0.00,VWS V14.01,2013-01-17 13:20:00,
2013-01-17 08:25:00,25.6,21.2,30.21,WSW,254,1.2,0.0,83,0.00,,CLR,0.00,VWS V14.01,2013-01-17 13:25:00,
2013-01-17 08:30:00,25.6,21.2,30.21,WSW,254,1.2,0.0,83,0.00,,CLR,0.00,VWS V14.01,2013-01-17 13:30:00,
2013-01-17 08:35:00,25.5,21.1,30.21,WSW,253,3.2,3.2,83,0.00,,CLR,0.00,VWS V14.01,2013-01-17 13:35:00,
2013-01-17 08:40:00,25.4,21.0,30.22,WSW,254,1.2,2.0,83,0.00,,CLR,0.00,VWS V14.01,2013-01-17 13:40:00,
2013-01-17 08:45:00,25.3,21.1,30.22,WSW,253,2.2,2.2,84,0.00,,CLR,0.00,VWS V14.01,2013-01-17 13:45:00,
2013-01-17 08:50:00,25.3,21.1,30.22,WSW,253,2.2,3.0,84,0.00,,CLR,0.00,VWS V14.01,2013-01-17 13:50:00,
2013-01-17 08:55:00,25.3,21.1,30.22,WSW,254,1.2,0.0,84,0.00,,CLR,0.00,VWS V14.01,2013-01-17 13:55:00,
2013-01-17 09:00:00,25.2,21.0,30.23,WSW,254,3.2,3.2,84,0.00,,CLR,0.00,VWS V14.01,2013-01-17 14:00:00,
2013-01-17 09:05:00,25.1,21.0,30.23,WSW,254,3.2,3.2,84,0.00,,CLR,0.00,VWS V14.01,2013-01-17 14:05:00,
2013-01-17 09:10:00,25.1,21.0,30.23,WSW,254,3.2,3.2,84,0.00,,CLR,0.00,VWS V14.01,2013-01-17 14:10:00,
2013-01-17 09:15:00,25.4,21.2,30.24,WSW,254,3.2,3.2,84,0.00,,CLR,0.00,VWS V14.01,2013-01-17 14:15:00,
2013-01-17 09:20:00,26.0,22.1,30.24,WSW,254,3.2,4.0,85,0.00,,CLR,0.00,VWS V14.01,2013-01-17 14:20:00,
2013-01-17 09:25:00,26.6,22.7,30.24,WSW,254,4.2,4.2,85,0.00,,CLR,0.00,VWS V14.01,2013-01-17 14:25:00,
2013-01-17 09:30:00,26.9,23.0,30.24,WSW,254,4.2,4.2,85,0.00,,CLR,0.00,VWS V14.01,2013-01-17 14:30:00,
2013-01-17 09:35:00,27.3,23.4,30.25,WSW,254,3.2,3.2,85,0.00,,CLR,0.00,VWS V14.01,2013-01-17 14:35:00,
2013-01-17 09:40:00,27.6,23.7,30.25,WSW,253,3.2,3.2,85,0.00,,CLR,0.00,VWS V14.01,2013-01-17 14:40:00,
2013-01-17 09:45:00,28.2,24.6,30.26,WSW,254,6.2,6.2,86,0.00,,CLR,0.00,VWS V14.01,2013-01-17 14:45:00,
2013-01-17 09:50:00,29.0,25.4,30.25,WSW,253,4.2,6.0,86,0.00,,CLR,0.00,VWS V14.01,2013-01-17 14:50:00,
2013-01-17 09:55:00,29.5,25.8,30.25,WSW,254,5.2,6.0,86,0.00,,CLR,0.00,VWS V14.01,2013-01-17 14:55:00,
2013-01-17 10:00:00,30.0,26.3,30.25,WSW,254,5.2,6.0,86,0.00,,CLR,0.00,VWS V14.01,2013-01-17 15:00:00,
2013-01-17 10:05:00,30.3,26.6,30.26,WSW,253,2.2,5.0,86,0.00,,CLR,0.00,VWS V14.01,2013-01-17 15:05:00,
2013-01-17 10:10:00,30.7,27.0,30.26,WSW,254,4.2,5.0,86,0.00,,CLR,0.00,VWS V14.01,2013-01-17 15:10:00,
2013-01-17 10:15:00,31.1,27.4,30.26,WSW,254,3.2,4.0,86,0.00,,CLR,0.00,VWS V14.01,2013-01-17 15:15:00,
2013-01-17 10:20:00,31.6,27.9,30.26,WSW,254,2.2,4.0,86,0.00,,CLR,0.00,VWS V14.01,2013-01-17 15:20:00,
2013-01-17 10:25:00,32.0,28.3,30.26,WSW,254,6.2,7.0,86,0.00,,CLR,0.00,VWS V14.01,2013-01-17 15:25:00,
2013-01-17 10:30:00,32.5,28.5,30.26,West,265,2.2,7.0,85,0.00,,CLR,0.00,VWS V14.01,2013-01-17 15:30:00,
2013-01-17 10:35:00,32.9,28.6,30.26,West,264,5.2,6.0,84,0.00,,CLR,0.00,VWS V14.01,2013-01-17 15:35:00,
2013-01-17 10:40:00,33.3,28.4,30.26,West,265,6.2,6.2,82,0.00,,CLR,0.00,VWS V14.01,2013-01-17 15:40:00,
2013-01-17 10:45:00,33.6,28.1,30.26,West,273,7.2,7.2,80,0.00,,CLR,0.00,VWS V14.01,2013-01-17 15:45:00,
2013-01-17 10:50:00,33.9,27.8,30.26,West,277,4.2,6.0,78,0.00,,CLR,0.00,VWS V14.01,2013-01-17 15:50:00,
2013-01-17 10:55:00,34.3,27.9,30.26,West,279,6.2,7.0,77,0.00,,CLR,0.00,VWS V14.01,2013-01-17 15:55:00,
2013-01-17 11:00:00,34.6,27.5,30.27,West,279,4.2,7.0,75,0.00,,CLR,0.00,VWS V14.01,2013-01-17 16:00:00,
2013-01-17 11:05:00,34.8,27.0,30.26,NW,317,2.2,8.0,73,0.00,,CLR,0.00,VWS V14.01,2013-01-17 16:05:00,
2013-01-17 11:10:00,35.0,27.2,30.26,NW,311,5.2,10.0,73,0.00,,CLR,0.00,VWS V14.01,2013-01-17 16:10:00,
2013-01-17 11:15:00,35.1,27.0,30.26,NW,309,4.2,7.0,72,0.00,,CLR,0.00,VWS V14.01,2013-01-17 16:15:00,
2013-01-17 11:20:00,35.3,26.9,30.26,NW,309,4.2,7.0,71,0.00,,CLR,0.00,VWS V14.01,2013-01-17 16:20:00,
2013-01-17 11:25:00,35.5,26.7,30.26,NW,307,5.2,7.0,70,0.00,,CLR,0.00,VWS V14.01,2013-01-17 16:25:00,
2013-01-17 11:30:00,35.5,26.7,30.26,NW,306,4.2,9.0,70,0.00,,CLR,0.00,VWS V14.01,2013-01-17 16:30:00,
2013-01-17 11:35:00,35.7,26.5,30.26,NW,320,2.2,9.0,69,0.00,,CLR,0.00,VWS V14.01,2013-01-17 16:35:00,
2013-01-17 11:40:00,35.7,26.5,30.26,WNW,300,6.2,9.0,69,0.00,,CLR,0.00,VWS V14.01,2013-01-17 16:40:00,
2013-01-17 11:45:00,35.9,26.4,30.26,North,360,4.2,10.0,68,0.00,,CLR,0.00,VWS V14.01,2013-01-17 16:45:00,
2013-01-17 11:50:00,36.1,26.2,30.25,NNW,329,4.2,10.0,67,0.00,,CLR,0.00,VWS V14.01,2013-01-17 16:50:00,
2013-01-17 11:55:00,36.3,26.4,30.25,NNW,344,4.2,7.0,67,0.00,,CLR,0.00,VWS V14.01,2013-01-17 16:55:00,
2013-01-17 12:00:00,36.7,26.4,30.25,NNW,330,6.2,8.0,66,0.00,,CLR,0.00,VWS V14.01,2013-01-17 17:00:00,
2013-01-17 12:05:00,36.8,25.4,30.25,WNW,300,8.2,11.0,63,0.00,,CLR,0.00,VWS V14.01,2013-01-17 17:05:00,
2013-01-17 12:10:00,36.8,24.6,30.25,NNW,345,4.2,11.0,61,0.00,,CLR,0.00,VWS V14.01,2013-01-17 17:10:00,
2013-01-17 12:15:00,37.1,25.3,30.25,NNW,345,5.2,7.0,62,0.00,,CLR,0.00,VWS V14.01,2013-01-17 17:15:00,
2013-01-17 12:20:00,37.2,24.2,30.25,NNW,328,4.2,12.0,59,0.00,,CLR,0.00,VWS V14.01,2013-01-17 17:20:00,
2013-01-17 12:25:00,37.4,24.0,30.24,NW,310,4.2,7.0,58,0.00,,CLR,0.00,VWS V14.01,2013-01-17 17:25:00,
2013-01-17 12:31:00,37.4,23.6,30.24,NW,304,5.2,11.0,57,0.00,,CLR,0.00,VWS V14.01,2013-01-17 17:31:00,
2013-01-17 12:36:00,37.5,23.2,30.24,WNW,302,6.2,10.0,56,0.00,,CLR,0.00,VWS V14.01,2013-01-17 17:36:00,
2013-01-17 12:41:00,37.5,22.8,30.24,NW,317,5.2,10.0,55,0.00,,CLR,0.00,VWS V14.01,2013-01-17 17:41:00,
2013-01-17 12:46:00,37.6,23.3,30.24,WNW,292,4.2,9.0,56,0.00,,CLR,0.00,VWS V14.01,2013-01-17 17:46:00,
2013-01-17 12:51:00,37.7,23.0,30.23,WNW,303,6.2,9.0,55,0.00,,CLR,0.00,VWS V14.01,2013-01-17 17:51:00,
2013-01-17 12:56:00,37.7,22.6,30.23,NNW,344,11.2,11.2,54,0.00,,CLR,0.00,VWS V14.01,2013-01-17 17:56:00,
2013-01-17 13:01:00,37.6,22.5,30.23,NNW,348,4.2,10.0,54,0.00,,CLR,0.00,VWS V14.01,2013-01-17 18:01:00,
2013-01-17 13:06:00,37.5,22.4,30.23,NW,314,5.2,11.0,54,0.00,,CLR,0.00,VWS V14.01,2013-01-17 18:06:00,
2013-01-17 13:11:00,37.5,21.9,30.23,NNW,327,6.2,11.0,53,0.00,,CLR,0.00,VWS V14.01,2013-01-17 18:11:00,
2013-01-17 13:16:00,37.7,23.0,30.22,WNW,296,2.2,7.0,55,0.00,,CLR,0.00,VWS V14.01,2013-01-17 18:16:00,
2013-01-17 13:21:00,37.9,22.8,30.23,NNW,329,7.2,9.0,54,0.00,,CLR,0.00,VWS V14.01,2013-01-17 18:21:00,
2013-01-17 13:26:00,38.0,22.9,30.23,NW,310,6.2,8.0,54,0.00,,CLR,0.00,VWS V14.01,2013-01-17 18:26:00,
2013-01-17 13:31:00,38.2,23.0,30.22,North,355,8.2,10.0,54,0.00,,CLR,0.00,VWS V14.01,2013-01-17 18:31:00,
2013-01-17 13:36:00,38.2,22.1,30.22,NW,317,4.2,9.0,52,0.00,,CLR,0.00,VWS V14.01,2013-01-17 18:36:00,
2013-01-17 13:41:00,38.2,22.1,30.22,NNW,334,4.2,9.0,52,0.00,,CLR,0.00,VWS V14.01,2013-01-17 18:41:00,
2013-01-17 13:46:00,38.2,22.6,30.22,North,351,6.2,10.0,53,0.00,,CLR,0.00,VWS V14.01,2013-01-17 18:46:00,
2013-01-17 13:51:00,38.3,22.2,30.22,NW,317,13.2,13.2,52,0.00,,CLR,0.00,VWS V14.01,2013-01-17 18:51:00,
2013-01-17 13:56:00,38.1,22.0,30.22,WNW,287,4.2,12.0,52,0.00,,CLR,0.00,VWS V14.01,2013-01-17 18:56:00,
2013-01-17 14:01:00,38.1,22.5,30.22,NNW,336,4.2,12.0,53,0.00,,CLR,0.00,VWS V14.01,2013-01-17 19:01:00,
2013-01-17 14:06:00,38.3,22.2,30.22,WNW,300,6.2,10.0,52,0.00,,CLR,0.00,VWS V14.01,2013-01-17 19:06:00,
2013-01-17 14:11:00,38.3,21.8,30.21,NNW,342,8.2,8.2,51,0.00,,CLR,0.00,VWS V14.01,2013-01-17 19:11:00,
2013-01-17 14:16:00,38.4,22.3,30.21,NNW,346,5.2,9.0,52,0.00,,CLR,0.00,VWS V14.01,2013-01-17 19:16:00,
2013-01-17 14:21:00,38.7,23.1,30.21,NW,304,4.2,7.0,53,0.00,,CLR,0.00,VWS V14.01,2013-01-17 19:21:00,
2013-01-17 14:26:00,38.9,22.8,30.21,NNW,330,6.2,9.0,52,0.00,,CLR,0.00,VWS V14.01,2013-01-17 19:26:00,
2013-01-17 14:31:00,38.9,22.8,30.21,WNW,292,2.2,11.0,52,0.00,,CLR,0.00,VWS V14.01,2013-01-17 19:31:00,
2013-01-17 14:36:00,38.9,22.8,30.21,NNW,348,7.2,8.0,52,0.00,,CLR,0.00,VWS V14.01,2013-01-17 19:36:00,
2013-01-17 14:41:00,38.8,22.7,30.22,NW,317,7.2,12.0,52,0.00,,CLR,0.00,VWS V14.01,2013-01-17 19:41:00,
2013-01-17 14:46:00,38.8,22.7,30.22,NW,315,4.2,13.0,52,0.00,,CLR,0.00,VWS V14.01,2013-01-17 19:46:00,
2013-01-17 14:51:00,38.5,22.4,30.22,NW,317,4.2,5.0,52,0.00,,CLR,0.00,VWS V14.01,2013-01-17 19:51:00,
2013-01-17 14:56:00,38.4,22.3,30.22,North,350,5.2,9.0,52,0.00,,CLR,0.00,VWS V14.01,2013-01-17 19:56:00,
2013-01-17 15:01:00,38.3,22.7,30.22,NW,326,7.2,8.0,53,0.00,,CLR,0.00,VWS V14.01,2013-01-17 20:01:00,
2013-01-17 15:06:00,38.2,22.6,30.22,NNW,331,2.2,12.0,53,0.00,,CLR,0.00,VWS V14.01,2013-01-17 20:06:00,
2013-01-17 15:11:00,38.3,22.2,30.23,NNE,19,7.2,7.2,52,0.00,,CLR,0.00,VWS V14.01,2013-01-17 20:11:00,
2013-01-17 15:17:00,38.0,21.5,30.23,NNW,333,9.2,14.0,51,0.00,,CLR,0.00,VWS V14.01,2013-01-17 20:17:00,
2013-01-17 15:22:00,37.8,21.3,30.23,NW,325,5.2,9.0,51,0.00,,CLR,0.00,VWS V14.01,2013-01-17 20:22:00,
2013-01-17 15:27:00,37.6,20.7,30.23,NNW,333,9.2,13.0,50,0.00,,CLR,0.00,VWS V14.01,2013-01-17 20:27:00,
2013-01-17 15:32:00,37.3,20.4,30.23,WNW,302,5.2,9.0,50,0.00,,CLR,0.00,VWS V14.01,2013-01-17 20:32:00,
2013-01-17 15:37:00,37.2,20.8,30.23,NW,311,5.2,12.0,51,0.00,,CLR,0.00,VWS V14.01,2013-01-17 20:37:00,
2013-01-17 15:42:00,37.1,19.7,30.23,NNE,15,9.2,13.0,49,0.00,,CLR,0.00,VWS V14.01,2013-01-17 20:42:00,
2013-01-17 15:47:00,36.9,20.0,30.23,NNW,345,7.2,13.0,50,0.00,,CLR,0.00,VWS V14.01,2013-01-17 20:47:00,
2013-01-17 15:52:00,36.7,19.8,30.23,West,279,2.2,13.0,50,0.00,,CLR,0.00,VWS V14.01,2013-01-17 20:52:00,
2013-01-17 15:57:00,36.6,19.7,30.23,NNW,348,7.2,13.0,50,0.00,,CLR,0.00,VWS V14.01,2013-01-17 20:57:00,
2013-01-17 16:02:00,36.5,19.6,30.24,NW,305,6.2,7.0,50,0.00,,CLR,0.00,VWS V14.01,2013-01-17 21:02:00,
2013-01-17 16:07:00,36.3,19.9,30.24,NW,307,7.2,13.0,51,0.00,,CLR,0.00,VWS V14.01,2013-01-17 21:07:00,
2013-01-17 16:12:00,36.1,19.7,30.25,NNW,343,8.2,8.2,51,0.00,,CLR,0.00,VWS V14.01,2013-01-17 21:12:00,
2013-01-17 16:17:00,36.0,19.6,30.24,North,9,5.2,11.0,51,0.00,,CLR,0.00,VWS V14.01,2013-01-17 21:17:00,
2013-01-17 16:22:00,35.7,19.4,30.25,NNE,15,9.2,9.2,51,0.00,,CLR,0.00,VWS V14.01,2013-01-17 21:22:00,
2013-01-17 16:27:00,35.5,19.6,30.25,NNW,331,5.2,12.0,52,0.00,,CLR,0.00,VWS V14.01,2013-01-17 21:27:00,
2013-01-17 16:32:00,35.2,19.4,30.25,North,351,5.2,8.0,52,0.00,,CLR,0.00,VWS V14.01,2013-01-17 21:32:00,
2013-01-17 16:37:00,35.0,19.2,30.26,NNW,334,5.2,8.0,52,0.00,,CLR,0.00,VWS V14.01,2013-01-17 21:37:00,
2013-01-17 16:42:00,35.0,19.2,30.26,NW,317,4.2,6.0,52,0.00,,CLR,0.00,VWS V14.01,2013-01-17 21:42:00,
2013-01-17 16:47:00,34.8,19.0,30.26,North,360,7.2,15.0,52,0.00,,CLR,0.00,VWS V14.01,2013-01-17 21:47:00,
2013-01-17 16:52:00,34.4,19.0,30.26,NW,311,6.2,8.0,53,0.00,,CLR,0.00,VWS V14.01,2013-01-17 21:52:00,
2013-01-17 16:57:00,34.2,19.3,30.26,NNW,344,1.2,8.0,54,0.00,,CLR,0.00,VWS V14.01,2013-01-17 21:57:00,
2013-01-17 17:02:00,34.1,19.2,30.27,NNE,14,7.2,8.0,54,0.00,,CLR,0.00,VWS V14.01,2013-01-17 22:02:00,
2013-01-17 17:07:00,33.7,19.3,30.27,NNW,342,5.2,11.0,55,0.00,,CLR,0.00,VWS V14.01,2013-01-17 22:07:00,
2013-01-17 17:12:00,33.4,19.0,30.27,NNW,338,3.2,6.0,55,0.00,,CLR,0.00,VWS V14.01,2013-01-17 22:12:00,
2013-01-17 17:17:00,33.1,18.7,30.27,NW,325,8.2,14.0,55,0.00,,CLR,0.00,VWS V14.01,2013-01-17 22:17:00,
2013-01-17 17:22:00,32.6,17.8,30.27,WNW,296,5.2,10.0,54,0.00,,CLR,0.00,VWS V14.01,2013-01-17 22:22:00,
2013-01-17 17:27:00,32.2,17.9,30.28,NW,312,7.2,11.0,55,0.00,,CLR,0.00,VWS V14.01,2013-01-17 22:27:00,
2013-01-17 17:32:00,31.8,17.9,30.28,NNW,330,6.2,11.0,56,0.00,,CLR,0.00,VWS V14.01,2013-01-17 22:32:00,
2013-01-17 17:37:00,31.4,17.9,30.29,NNW,329,7.2,12.0,57,0.00,,CLR,0.00,VWS V14.01,2013-01-17 22:37:00,
2013-01-17 17:42:00,31.0,17.6,30.29,NNW,346,5.2,13.0,57,0.00,,CLR,0.00,VWS V14.01,2013-01-17 22:42:00,
2013-01-17 17:47:00,30.6,17.6,30.29,North,360,8.2,13.0,58,0.00,,CLR,0.00,VWS V14.01,2013-01-17 22:47:00,
2013-01-17 17:52:00,30.3,17.7,30.30,NW,325,7.2,10.0,59,0.00,,CLR,0.00,VWS V14.01,2013-01-17 22:52:00,
2013-01-17 17:57:00,30.0,17.4,30.31,NNE,13,9.2,14.0,59,0.00,,CLR,0.00,VWS V14.01,2013-01-17 22:57:00,
2013-01-17 18:02:00,29.7,17.1,30.31,NNW,327,4.2,8.0,59,0.00,,CLR,0.00,VWS V14.01,2013-01-17 23:02:00,
2013-01-17 18:08:00,29.5,17.3,30.31,NNW,344,5.2,9.0,60,0.00,,CLR,0.00,VWS V14.01,2013-01-17 23:08:00,
2013-01-17 18:12:00,29.3,16.8,30.32,North,360,7.2,12.0,59,0.00,,CLR,0.00,VWS V14.01,2013-01-17 23:12:00,
2013-01-17 18:18:00,29.1,16.6,30.32,NNW,338,1.2,12.0,59,0.00,,CLR,0.00,VWS V14.01,2013-01-17 23:18:00,
2013-01-17 18:23:00,28.9,16.8,30.32,NW,323,6.2,6.2,60,0.00,,CLR,0.00,VWS V14.01,2013-01-17 23:23:00,
2013-01-17 18:28:00,28.7,16.6,30.32,NNW,344,5.2,10.0,60,0.00,,CLR,0.00,VWS V14.01,2013-01-17 23:28:00,
2013-01-17 18:33:00,28.5,16.4,30.32,North,355,4.2,6.0,60,0.00,,CLR,0.00,VWS V14.01,2013-01-17 23:33:00,
2013-01-17 18:38:00,28.3,16.6,30.33,NE,46,13.2,17.0,61,0.00,,CLR,0.00,VWS V14.01,2013-01-17 23:38:00,
2013-01-17 18:43:00,28.1,16.4,30.33,NNW,333,5.2,9.0,61,0.00,,CLR,0.00,VWS V14.01,2013-01-17 23:43:00,
2013-01-17 18:48:00,27.8,16.1,30.33,North,360,10.2,14.0,61,0.00,,CLR,0.00,VWS V14.01,2013-01-17 23:48:00,
2013-01-17 18:53:00,27.7,16.0,30.34,NNE,22,9.2,14.0,61,0.00,,CLR,0.00,VWS V14.01,2013-01-17 23:53:00,
2013-01-17 18:58:00,27.5,16.2,30.34,NNE,25,9.2,15.0,62,0.00,,CLR,0.00,VWS V14.01,2013-01-17 23:58:00,
2013-01-17 19:03:00,27.2,15.9,30.34,North,355,4.2,7.0,62,0.00,,CLR,0.00,VWS V14.01,2013-01-18 00:03:00,
2013-01-17 19:08:00,27.0,15.7,30.34,North,360,6.2,12.0,62,0.00,,CLR,0.00,VWS V14.01,2013-01-18 00:08:00,
2013-01-17 19:13:00,26.8,15.5,30.34,NNE,30,12.2,19.0,62,0.00,,CLR,0.00,VWS V14.01,2013-01-18 00:13:00,
2013-01-17 19:18:00,26.6,15.0,30.35,NNE,19,10.2,19.0,61,0.00,,CLR,0.00,VWS V14.01,2013-01-18 00:18:00,
2013-01-17 19:23:00,26.4,15.2,30.35,North,5,8.2,11.0,62,0.00,,CLR,0.00,VWS V14.01,2013-01-18 00:23:00,
2013-01-17 19:28:00,26.3,15.1,30.35,NNE,15,6.2,11.0,62,0.00,,CLR,0.00,VWS V14.01,2013-01-18 00:28:00,
2013-01-17 19:33:00,26.1,14.9,30.35,North,349,8.2,14.0,62,0.00,,CLR,0.00,VWS V14.01,2013-01-18 00:33:00,
2013-01-17 19:38:00,25.9,14.7,30.36,NNE,20,8.2,14.0,62,0.00,,CLR,0.00,VWS V14.01,2013-01-18 00:38:00,
2013-01-17 19:43:00,25.8,14.6,30.36,North,355,12.2,12.2,62,0.00,,CLR,0.00,VWS V14.01,2013-01-18 00:43:00,
2013-01-17 19:48:00,25.7,14.5,30.36,NNW,341,7.2,12.0,62,0.00,,CLR,0.00,VWS V14.01,2013-01-18 00:48:00,
2013-01-17 19:53:00,25.6,14.8,30.37,NNW,340,5.2,8.0,63,0.00,,CLR,0.00,VWS V14.01,2013-01-18 00:53:00,
2013-01-17 19:58:00,25.4,14.6,30.37,NNW,348,4.2,11.0,63,0.00,,CLR,0.00,VWS V14.01,2013-01-18 00:58:00,
2013-01-17 20:03:00,25.3,14.8,30.38,North,360,8.2,9.0,64,0.00,,CLR,0.00,VWS V14.01,2013-01-18 01:03:00,
2013-01-17 20:08:00,25.2,14.8,30.38,NNE,17,3.2,10.0,64,0.00,,CLR,0.00,VWS V14.01,2013-01-18 01:08:00,
2013-01-17 20:13:00,25.1,14.6,30.38,NNW,344,3.2,7.0,64,0.00,,CLR,0.00,VWS V14.01,2013-01-18 01:13:00,
2013-01-17 20:18:00,25.0,14.6,30.38,NNW,336,3.2,10.0,64,0.00,,CLR,0.00,VWS V14.01,2013-01-18 01:18:00,
2013-01-17 20:23:00,24.9,14.1,30.39,NNW,335,6.2,9.0,63,0.00,,CLR,0.00,VWS V14.01,2013-01-18 01:23:00,
2013-01-17 20:28:00,24.9,14.1,30.39,NNW,338,5.2,9.0,63,0.00,,CLR,0.00,VWS V14.01,2013-01-18 01:28:00,
2013-01-17 20:33:00,24.8,14.0,30.39,NNW,340,5.2,5.2,63,0.00,,CLR,0.00,VWS V14.01,2013-01-18 01:33:00,
2013-01-17 20:38:00,24.8,13.6,30.39,North,355,2.2,12.0,62,0.00,,CLR,0.00,VWS V14.01,2013-01-18 01:38:00,
2013-01-17 20:43:00,24.7,13.6,30.39,North,360,6.2,8.0,62,0.00,,CLR,0.00,VWS V14.01,2013-01-18 01:43:00,
2013-01-17 20:48:00,24.6,13.1,30.39,NNW,333,8.2,11.0,61,0.00,,CLR,0.00,VWS V14.01,2013-01-18 01:48:00,
2013-01-17 20:53:00,24.5,13.0,30.39,NNW,339,6.2,8.0,61,0.00,,CLR,0.00,VWS V14.01,2013-01-18 01:53:00,
2013-01-17 20:58:00,24.5,13.0,30.39,North,351,2.2,8.0,61,0.00,,CLR,0.00,VWS V14.01,2013-01-18 01:58:00,
2013-01-17 21:03:00,24.4,12.9,30.39,North,355,3.2,7.0,61,0.00,,CLR,0.00,VWS V14.01,2013-01-18 02:03:00,
2013-01-17 21:08:00,24.3,12.8,30.39,NNW,336,7.2,7.2,61,0.00,,CLR,0.00,VWS V14.01,2013-01-18 02:08:00,
2013-01-17 21:13:00,24.2,13.1,30.40,NNW,339,2.2,3.0,62,0.00,,CLR,0.00,VWS V14.01,2013-01-18 02:13:00,
2013-01-17 21:18:00,24.2,13.1,30.40,NW,317,3.2,7.0,62,0.00,,CLR,0.00,VWS V14.01,2013-01-18 02:18:00,
2013-01-17 21:23:00,24.1,13.0,30.40,NW,317,4.2,6.0,62,0.00,,CLR,0.00,VWS V14.01,2013-01-18 02:23:00,
2013-01-17 21:28:00,24.0,12.9,30.40,NW,319,4.2,6.0,62,0.00,,CLR,0.00,VWS V14.01,2013-01-18 02:28:00,
2013-01-17 21:33:00,23.9,13.1,30.40,NW,321,4.2,4.2,63,0.00,,CLR,0.00,VWS V14.01,2013-01-18 02:33:00,
2013-01-17 21:38:00,23.8,13.1,30.40,NW,321,2.2,5.0,63,0.00,,CLR,0.00,VWS V14.01,2013-01-18 02:38:00,
2013-01-17 21:43:00,23.7,13.0,30.40,NW,321,1.2,3.0,63,0.00,,CLR,0.00,VWS V14.01,2013-01-18 02:43:00,
2013-01-17 21:48:00,23.7,13.0,30.40,NW,321,1.2,4.0,63,0.00,,CLR,0.00,VWS V14.01,2013-01-18 02:48:00,
2013-01-17 21:54:00,23.6,12.9,30.40,NW,321,2.2,3.0,63,0.00,,CLR,0.00,VWS V14.01,2013-01-18 02:54:00,
2013-01-17 21:59:00,23.5,12.8,30.40,NW,321,1.2,3.0,63,0.00,,CLR,0.00,VWS V14.01,2013-01-18 02:59:00,
2013-01-17 22:04:00,23.4,13.0,30.41,NW,321,1.2,3.0,64,0.00,,CLR,0.00,VWS V14.01,2013-01-18 03:04:00,
2013-01-17 22:09:00,23.3,12.9,30.40,NW,321,1.2,3.0,64,0.00,,CLR,0.00,VWS V14.01,2013-01-18 03:09:00,
2013-01-17 22:14:00,23.2,12.8,30.40,NW,321,2.2,2.2,64,0.00,,CLR,0.00,VWS V14.01,2013-01-18 03:14:00,
2013-01-17 22:19:00,23.1,13.1,30.41,NW,321,2.2,3.0,65,0.00,,CLR,0.00,VWS V14.01,2013-01-18 03:19:00,
2013-01-17 22:24:00,23.1,13.1,30.41,NW,321,1.2,1.2,65,0.00,,CLR,0.00,VWS V14.01,2013-01-18 03:24:00,
2013-01-17 22:29:00,23.0,13.0,30.41,NW,321,2.2,2.2,65,0.00,,CLR,0.00,VWS V14.01,2013-01-18 03:29:00,
2013-01-17 22:34:00,22.9,12.9,30.41,NW,321,3.2,3.2,65,0.00,,CLR,0.00,VWS V14.01,2013-01-18 03:34:00,
2013-01-17 22:39:00,22.8,13.2,30.41,NW,321,2.2,2.2,66,0.00,,CLR,0.00,VWS V14.01,2013-01-18 03:39:00,
2013-01-17 22:44:00,22.6,13.0,30.41,NW,321,2.2,2.2,66,0.00,,CLR,0.00,VWS V14.01,2013-01-18 03:44:00,
2013-01-17 22:49:00,22.4,13.1,30.41,NW,321,1.2,2.0,67,0.00,,CLR,0.00,VWS V14.01,2013-01-18 03:49:00,
2013-01-17 22:54:00,22.2,12.9,30.41,NW,321,2.2,2.2,67,0.00,,CLR,0.00,VWS V14.01,2013-01-18 03:54:00,
2013-01-17 22:59:00,22.1,12.8,30.41,NW,321,2.2,2.2,67,0.00,,CLR,0.00,VWS V14.01,2013-01-18 03:59:00,
2013-01-17 23:04:00,22.0,13.1,30.41,NW,321,2.2,2.2,68,0.00,,CLR,0.00,VWS V14.01,2013-01-18 04:04:00,
2013-01-17 23:09:00,21.9,13.3,30.41,NW,321,2.2,2.2,69,0.00,,CLR,0.00,VWS V14.01,2013-01-18 04:09:00,
2013-01-17 23:14:00,21.8,13.2,30.41,NW,321,2.2,2.2,69,0.00,,CLR,0.00,VWS V14.01,2013-01-18 04:14:00,
2013-01-17 23:19:00,21.7,13.4,30.41,NW,321,3.2,3.2,70,0.00,,CLR,0.00,VWS V14.01,2013-01-18 04:19:00,
2013-01-17 23:24:00,21.6,13.3,30.42,NW,321,2.2,2.2,70,0.00,,CLR,0.00,VWS V14.01,2013-01-18 04:24:00,
2013-01-17 23:29:00,21.5,13.6,30.42,NW,321,1.2,2.0,71,0.00,,CLR,0.00,VWS V14.01,2013-01-18 04:29:00,
2013-01-17 23:34:00,21.4,13.5,30.42,NW,321,1.2,2.0,71,0.00,,CLR,0.00,VWS V14.01,2013-01-18 04:34:00,
2013-01-17 23:39:00,21.3,13.4,30.42,NW,321,2.2,3.0,71,0.00,,CLR,0.00,VWS V14.01,2013-01-18 04:39:00,
2013-01-17 23:44:00,21.2,13.6,30.42,NW,321,2.2,2.2,72,0.00,,CLR,0.00,VWS V14.01,2013-01-18 04:44:00,
2013-01-17 23:49:00,21.1,13.5,30.42,NW,321,2.2,2.2,72,0.00,,CLR,0.00,VWS V14.01,2013-01-18 04:49:00,
2013-01-17 23:54:00,21.0,13.7,30.42,NW,321,2.2,2.2,73,0.00,,CLR,0.00,VWS V14.01,2013-01-18 04:54:00,
2013-01-17 23:59:00,21.0,13.7,30.42,NW,321,2.2,2.2,73,0.00,,CLR,0.00,VWS V14.01,2013-01-18 04:59:00,